[[{"header":{"parameterUnit":"m.s-1","parameterCategory":1,"la1":30.2991,"la2":30.254,"lo1":-89.0895,"lo2":-89.0444,"dy":0.0017,"dx":0.0017,"nx":28,"ny":28,"refTime":"2023-08-06T21:00:00:Z","depth":0,"parameterNumber":2,"parameterNumberName":"U-component_of_WINDS"},"data":[0,0,0,0,0,0,0,0,0,0,0,0,0,0,0,0,0,0,0,0,0,0,0,0,0,0,0,0,0,0,0,0,0,0,0,0,0,0,0,0,0,0,0,0,0,0,0,0,0,0,0,0,0,0,0,0,0,0,4.4051,4.4052,0,4.4133,4.4134,4.4135,4.4118,4.4117,4.4115,4.4114,4.42,4.4203,4.4207,0,0,0,0,0,0,0,0,0,0,0,0,0,4.3883,4.3886,4.4051,4.4052,4.4053,4.4133,4.4134,4.4135,4.4119,4.4117,4.4115,4.4113,4.4199,4.4203,4.4207,0,0,0,0,0,0,0,0,0,0,0,0,0,4.3959,4.3887,4.4051,4.4054,4.4056,4.4133,4.4134,4.4136,4.4119,4.4117,4.4114,4.4112,4.4197,4.4203,4.4208,4.4287,0,0,4.4225,4.4227,0,0,0,0,0,0,0,0,4.3955,4.3966,4.4053,4.4054,4.4056,4.4113,4.4106,4.4187,4.412,4.4095,4.4114,4.4111,4.4173,4.418,4.4201,4.4291,4.4295,4.4225,4.4229,4.4231,4.4233,0,0,0,0,0,0,0,4.395,4.3962,4.4084,4.4054,4.4056,4.4053,4.4061,4.4121,4.4146,4.4097,4.4096,4.4106,4.4173,4.4195,4.4203,4.4296,4.4225,4.423,4.4234,4.4236,4.4459,4.4461,0,0,0,0,0,0,4.3943,4.3958,4.4081,4.4086,4.3999,4.4058,4.4067,4.4097,4.4145,4.415,4.4108,4.4105,4.4187,4.4196,4.4206,4.4303,4.4231,4.4236,4.4239,4.4456,4.4459,4.4462,0,0,0,0,0,0,4.3939,4.3954,4.4078,4.4022,4.4037,4.4063,4.4097,4.41,4.4122,4.4153,4.4157,4.4126,4.4186,4.4198,4.4268,4.4306,4.4239,4.4244,4.4453,4.4457,4.4461,4.4498,0,0,0,0,0,0,4.3935,4.3953,4.3983,4.4022,4.404,4.4138,4.4099,4.4103,4.4131,4.4128,4.4171,4.4176,4.4185,4.4259,4.4273,4.4312,4.4248,4.445,4.4455,4.4459,4.4494,4.4503,4.4511,0,0,0,0,0,4.3929,4.399,4.3984,4.3999,4.4078,4.414,4.415,4.4158,4.4134,4.4165,4.4185,4.4175,4.4299,4.4267,4.4282,4.4323,4.4447,4.4453,4.4459,4.449,4.4501,4.451,0,0,0,0,0,0,4.3954,4.3995,4.3989,4.4065,4.4099,4.4137,4.4176,4.417,4.4212,4.4207,4.4216,4.4226,4.4297,4.4317,4.428,4.4404,4.437,4.4379,4.4388,4.4399,4.4408,4.4402,4.4253,0,0,0,0,0,4.3968,4.4015,4.4048,4.4112,4.4129,4.415,4.4177,4.418,4.4216,4.4231,4.4256,4.4292,4.4339,4.437,4.4415,4.4496,4.4506,4.4532,4.4541,4.4548,4.4556,4.4602,4.4615,4.4481,4.4481,4.4481,0,0,4.3999,4.4027,4.4055,4.4118,4.4145,4.4193,4.4162,4.4214,4.4251,4.4239,4.4306,4.4326,4.4367,4.4443,4.4478,4.4462,4.4595,4.4555,4.456,4.4565,4.4609,4.4622,4.4633,4.4485,4.4484,4.4484,0,0,4.4079,4.4104,4.4161,4.4189,4.423,4.4243,4.4257,4.4296,4.4308,4.4376,4.4369,4.4413,4.4494,4.4524,4.4549,4.4642,4.4635,4.4657,4.4702,4.4747,4.4757,4.4767,4.4801,4.4814,4.4665,4.4665,4.4665,0,4.4112,4.4184,4.4191,4.4245,4.4273,4.4264,4.4323,4.4349,4.4403,4.4423,4.4404,4.4507,4.4533,4.4617,4.464,4.4661,4.4678,4.4652,4.4755,4.4765,4.4774,4.4807,4.482,4.4667,4.4667,4.4667,4.4667,0,4.4223,4.4274,4.4315,4.4367,4.44,4.4455,4.4472,4.4504,4.4505,4.4521,4.4591,4.4623,4.4675,4.4695,4.4697,4.478,4.4769,4.4753,4.4719,4.4789,4.482,4.4833,4.4671,4.467,4.4669,4.4669,0,0,4.4322,4.4378,4.4393,4.4417,4.4462,4.4502,4.4558,4.4608,4.4637,4.4675,4.4723,4.4792,4.4778,4.4807,4.4812,4.4851,4.4925,4.483,4.4831,4.4847,4.502,4.5033,4.5048,4.492,4.4922,4.4924,4.5017,0,4.4407,4.4505,4.4514,4.4603,4.465,4.4643,4.4692,4.4726,4.4742,4.4786,4.4804,4.4854,4.483,4.4848,4.4886,4.4907,4.496,4.4901,4.4966,4.4968,4.4957,4.5064,4.5078,4.5164,4.503,4.5032,4.5033,0,4.452,4.4561,4.4655,4.4695,4.4715,4.4759,4.4807,4.4848,4.4886,4.4896,4.4929,4.4929,4.4988,4.4952,4.5034,4.4994,4.5021,4.5036,4.5039,4.5046,4.5005,4.5075,4.5192,4.5205,4.5052,4.5051,4.5049,0,4.4585,4.4664,4.473,4.4751,4.4798,4.483,4.4851,4.4887,4.4918,4.496,4.498,4.5029,4.5056,4.5094,4.5107,4.5079,4.519,4.5154,4.52,4.52,4.5225,4.5223,4.5348,4.524,4.524,4.524,4.524,0,4.468,4.4738,4.476,4.4801,4.4866,4.4876,4.494,4.496,4.4992,4.5038,4.5034,4.5078,4.5092,4.5138,4.5149,4.5217,4.5229,4.5239,4.5241,4.524,4.5239,4.5258,4.5253,4.5243,4.5242,4.5242,4.5241,0,4.4764,4.478,4.4853,4.4892,4.4903,4.495,4.4984,4.5024,4.504,4.5098,4.5112,4.5137,4.5191,4.5208,4.5273,4.5281,4.536,4.5357,4.5347,4.5348,4.5394,4.539,4.5537,4.5557,4.5435,4.5436,4.5437,0,4.4824,4.4868,4.4913,4.4943,4.4965,4.5014,4.5045,4.5056,4.5089,4.5137,4.5172,4.5225,4.5269,4.5356,4.5381,4.5431,4.543,4.5478,4.5437,4.5435,4.5432,4.543,4.5435,4.5486,4.5487,4.5488,4.5489,0,4.493,4.4936,4.4981,4.5029,4.5067,4.5105,4.5142,4.5167,4.5184,4.5222,4.5277,4.531,4.5377,4.5431,4.5482,4.5505,4.5501,4.5501,4.5515,4.5515,4.5508,4.5513,4.5369,4.5498,4.5497,4.5497,4.5496,4.5496,4.5005,4.5045,4.5082,4.5133,4.5162,4.5197,4.5237,4.5258,4.5304,4.5359,4.5363,4.5423,4.5462,4.553,4.5556,4.5604,4.559,4.561,4.5615,4.562,4.5624,4.5499,4.5613,4.5613,4.5613,4.5613,4.5612,0,4.5112,4.5136,4.5182,4.5234,4.5274,4.5265,4.5307,4.5341,4.5394,4.543,4.5473,4.5537,4.5589,4.5618,4.5671,4.5704,4.5703,4.5717,4.5716,4.5721,4.5633,4.5616,4.5717,4.5717,4.5717,4.5717,4.5717,4.5717,4.5172,4.524,4.5251,4.5333,4.5356,4.5415,4.5439,4.5472,4.5501,4.5573,4.5616,4.5634,4.5668,4.5723,4.5772,4.5779,4.5799,4.5815,4.5821,4.5738,4.5727,4.5717,4.5702,4.5819,4.5819,4.5906,4.5907,4.5907]},{"header":{"parameterUnit":"m.s-1","parameterCategory":1,"la1":30.2991,"la2":30.254,"lo1":-89.0895,"lo2":-89.0444,"dy":0.0017,"dx":0.0017,"nx":28,"ny":28,"refTime":"2023-08-06T21:00:00:Z","depth":0,"parameterNumber":3,"parameterNumberName":"V-component_of_WINDS"},"data":[0,0,0,0,0,0,0,0,0,0,0,0,0,0,0,0,0,0,0,0,0,0,0,0,0,0,0,0,0,0,0,0,0,0,0,0,0,0,0,0,0,0,0,0,0,0,0,0,0,0,0,0,0,0,0,0,0,0,0.5366,0.5366,0,0.5335,0.5335,0.5334,0.5313,0.5312,0.5312,0.5312,0.5279,0.5278,0.5277,0,0,0,0,0,0,0,0,0,0,0,0,0,0.5405,0.5404,0.5366,0.5366,0.5365,0.5335,0.5335,0.5334,0.5313,0.5312,0.5312,0.5312,0.5279,0.5278,0.5277,0,0,0,0,0,0,0,0,0,0,0,0,0,0.5382,0.5404,0.5366,0.5351,0.5349,0.5335,0.5335,0.5334,0.5313,0.5312,0.5312,0.5312,0.5279,0.5278,0.5277,0.5275,0,0,0.5274,0.5273,0,0,0,0,0,0,0,0,0.5383,0.5381,0.5354,0.5352,0.535,0.5327,0.5336,0.5314,0.5313,0.5326,0.5312,0.5312,0.5295,0.5293,0.5287,0.5274,0.5272,0.5274,0.5273,0.5273,0.5272,0,0,0,0,0,0,0,0.5385,0.5382,0.5354,0.5353,0.5351,0.5345,0.5341,0.5332,0.5313,0.5325,0.5324,0.532,0.5294,0.5289,0.5286,0.5272,0.5274,0.5273,0.5272,0.5272,0.5254,0.5254,0,0,0,0,0,0,0.5389,0.5383,0.5355,0.5353,0.5366,0.5344,0.5341,0.5335,0.5313,0.5309,0.5321,0.5319,0.5291,0.5288,0.5285,0.5281,0.5273,0.5272,0.5271,0.5254,0.5254,0.5254,0,0,0,0,0,0,0.539,0.5387,0.5356,0.5368,0.5363,0.5344,0.5338,0.5334,0.5329,0.5309,0.5305,0.5319,0.529,0.5287,0.5278,0.5279,0.5271,0.527,0.5253,0.5254,0.5254,0.5272,0,0,0,0,0,0,0.5391,0.5387,0.5387,0.5368,0.5363,0.535,0.5338,0.5334,0.5327,0.5325,0.5306,0.5303,0.529,0.528,0.5277,0.5278,0.5269,0.5253,0.5254,0.5254,0.5272,0.5273,0.5275,0,0,0,0,0,0.5393,0.5393,0.5387,0.5384,0.5362,0.535,0.5347,0.5333,0.5327,0.5326,0.5313,0.5303,0.528,0.5279,0.5275,0.5276,0.5253,0.5253,0.5254,0.5271,0.5273,0.5275,0,0,0,0,0,0,0.5413,0.5391,0.5383,0.5378,0.5366,0.5346,0.5345,0.5335,0.5324,0.5323,0.5305,0.5301,0.5293,0.5284,0.5283,0.5272,0.5265,0.5265,0.5279,0.5281,0.5282,0.5285,0.5268,0,0,0,0,0,0.5417,0.541,0.539,0.5387,0.5382,0.5364,0.5359,0.5348,0.5335,0.533,0.5316,0.5303,0.5293,0.5286,0.5276,0.527,0.5265,0.5269,0.527,0.5272,0.5272,0.5267,0.5268,0.5255,0.5255,0.5255,0,0,0.5425,0.5412,0.5408,0.5391,0.5381,0.5373,0.536,0.5353,0.5346,0.5329,0.5319,0.5309,0.5293,0.5285,0.5281,0.5277,0.5274,0.5272,0.5273,0.5272,0.5267,0.5268,0.5269,0.5256,0.5256,0.5256,0,0,0.5435,0.5425,0.5421,0.5411,0.5395,0.5383,0.5382,0.5364,0.5356,0.5347,0.5333,0.5324,0.5307,0.5296,0.5288,0.5293,0.5283,0.529,0.5298,0.5294,0.5295,0.5295,0.5296,0.5297,0.529,0.529,0.529,0,0.5447,0.5435,0.542,0.5413,0.5405,0.5389,0.5384,0.5375,0.5356,0.5351,0.5346,0.5324,0.5312,0.5301,0.5302,0.5296,0.5294,0.5292,0.5296,0.5296,0.5297,0.5298,0.5298,0.5291,0.5291,0.5291,0.5291,0,0.545,0.5442,0.544,0.5423,0.5415,0.5409,0.5392,0.5386,0.5376,0.5365,0.5354,0.534,0.5325,0.5322,0.5312,0.5309,0.5307,0.5299,0.5292,0.5299,0.53,0.53,0.5292,0.5292,0.5292,0.5292,0,0,0.5472,0.5446,0.5446,0.5438,0.5419,0.5412,0.5404,0.5391,0.5385,0.5373,0.5366,0.5351,0.5343,0.5334,0.5323,0.5319,0.5323,0.5312,0.5311,0.5314,0.5317,0.5323,0.5324,0.5316,0.5316,0.5316,0.5319,0,0.5479,0.5466,0.5452,0.5444,0.5435,0.5419,0.5413,0.54,0.5389,0.5379,0.5367,0.5356,0.5348,0.5342,0.5337,0.5324,0.5323,0.5323,0.5308,0.5308,0.5313,0.5324,0.533,0.5333,0.5319,0.5319,0.5319,0,0.5486,0.5474,0.5465,0.5446,0.5442,0.5437,0.5422,0.5414,0.5399,0.5391,0.538,0.5368,0.5359,0.5352,0.5338,0.5338,0.5331,0.5323,0.5323,0.5321,0.5314,0.5321,0.5334,0.5334,0.5319,0.5319,0.5319,0,0.5503,0.5485,0.5477,0.547,0.5448,0.5444,0.5435,0.5419,0.5411,0.5398,0.5393,0.5379,0.5371,0.536,0.5344,0.5341,0.5332,0.5324,0.5324,0.5324,0.5323,0.5323,0.5334,0.5319,0.5319,0.5319,0.5319,0,0.5512,0.5506,0.5484,0.5479,0.5472,0.5455,0.5449,0.5438,0.5424,0.5416,0.5401,0.5393,0.5373,0.5363,0.535,0.534,0.5336,0.5329,0.5326,0.533,0.5331,0.5325,0.5324,0.5319,0.5319,0.5319,0.5319,0,0.5529,0.5514,0.5504,0.5483,0.5478,0.5474,0.5456,0.545,0.5438,0.5428,0.5424,0.5405,0.5392,0.5375,0.5356,0.5348,0.5339,0.5334,0.5344,0.5342,0.5343,0.5343,0.535,0.5349,0.5336,0.5336,0.5336,0,0.5536,0.5531,0.551,0.5504,0.5495,0.5485,0.5477,0.546,0.5452,0.5434,0.543,0.5416,0.5403,0.5383,0.5367,0.5352,0.5347,0.535,0.5344,0.5349,0.5346,0.5346,0.5345,0.5351,0.5352,0.5352,0.5352,0,0.5549,0.5541,0.5531,0.5517,0.5508,0.5496,0.5484,0.5479,0.5459,0.5451,0.5438,0.5428,0.5409,0.5395,0.5378,0.5367,0.5356,0.5354,0.5353,0.5357,0.5363,0.5359,0.5348,0.5354,0.5354,0.5353,0.5353,0.5353,0.556,0.5556,0.554,0.5528,0.5517,0.5506,0.5499,0.5485,0.5474,0.5458,0.5448,0.5435,0.5418,0.5395,0.5384,0.5373,0.5369,0.5368,0.5367,0.5367,0.5368,0.5365,0.537,0.537,0.537,0.537,0.537,0,0.5572,0.5561,0.5551,0.5534,0.5524,0.5515,0.55,0.5493,0.5482,0.5468,0.5456,0.544,0.5426,0.5408,0.5393,0.5387,0.5381,0.5383,0.5383,0.5381,0.5374,0.5376,0.5388,0.5388,0.5388,0.5388,0.5388,0.5388,0.5577,0.5568,0.5559,0.5543,0.5532,0.552,0.5512,0.5501,0.5489,0.5473,0.5461,0.545,0.5434,0.5417,0.5403,0.5398,0.5393,0.5396,0.539,0.5383,0.5381,0.538,0.5382,0.5395,0.5395,0.5398,0.5398,0.5398]}]]